Time,TemperatureF,DewpointF,PressureIn,WindDirection,WindDirectionDegrees,WindSpeedMPH,WindSpeedGustMPH,Humidity,HourlyPrecipIn,Conditions,Clouds,dailyrainin,SoftwareType,DateUTC
2013-03-05 00:00:00,29.0,16.8,29.80,NE,38,0.7,3.6,56,0.00,,,0.00,WSDL version 420,2013-03-05 05:00:00,
2013-03-05 00:03:00,29.1,16.8,29.80,South,180,0.0,3.6,56,0.00,,,0.00,WSDL version 420,2013-03-05 05:03:00,
2013-03-05 00:05:00,29.1,16.9,29.80,NNE,23,3.1,3.1,56,0.00,,,0.00,WSDL version 420,2013-03-05 05:05:00,
2013-03-05 00:09:00,29.1,16.9,29.80,SE,135,4.0,4.0,56,0.00,,,0.00,WSDL version 420,2013-03-05 05:09:00,
2013-03-05 00:15:00,29.3,17.3,29.80,ESE,120,1.1,4.7,57,0.00,,,0.00,WSDL version 420,2013-03-05 05:15:00,
2013-03-05 00:21:00,29.3,17.4,29.80,East,83,1.9,4.7,57,0.00,,,0.00,WSDL version 420,2013-03-05 05:21:00,
2013-03-05 00:27:00,29.2,17.4,29.80,East,79,2.6,3.1,57,0.00,,,0.00,WSDL version 420,2013-03-05 05:27:00,
2013-03-05 00:33:00,29.1,17.3,29.80,East,101,1.3,4.0,57,0.00,,,0.00,WSDL version 420,2013-03-05 05:33:00,
2013-03-05 00:39:00,29.0,17.2,29.80,NNE,30,3.5,5.4,57,0.00,,,0.00,WSDL version 420,2013-03-05 05:39:00,
2013-03-05 00:45:00,29.0,17.3,29.80,SSW,210,0.5,7.2,58,0.00,,,0.00,WSDL version 420,2013-03-05 05:45:00,
2013-03-05 00:51:00,29.0,17.3,29.80,SE,128,2.9,6.5,58,0.00,,,0.00,WSDL version 420,2013-03-05 05:51:00,
2013-03-05 00:57:00,29.1,17.6,29.80,NE,45,4.0,6.5,58,0.00,,,0.00,WSDL version 420,2013-03-05 05:57:00,
2013-03-05 01:04:00,29.3,17.8,29.80,SSE,158,2.9,5.8,58,0.00,,,0.00,WSDL version 420,2013-03-05 06:04:00,
2013-03-05 01:10:00,29.3,17.9,29.80,East,79,3.0,5.8,59,0.00,,,0.00,WSDL version 420,2013-03-05 06:10:00,
2013-03-05 01:16:00,29.3,18.2,29.80,WNW,300,1.2,4.3,59,0.00,,,0.00,WSDL version 420,2013-03-05 06:16:00,
2013-03-05 01:22:00,29.3,18.0,29.80,WNW,300,2.6,3.4,59,0.00,,,0.00,WSDL version 420,2013-03-05 06:22:00,
2013-03-05 01:28:00,29.3,17.9,29.80,ESE,105,1.5,3.6,59,0.00,,,0.00,WSDL version 420,2013-03-05 06:28:00,
2013-03-05 01:34:00,29.3,18.0,29.80,ESE,113,1.5,3.6,59,0.00,,,0.00,WSDL version 420,2013-03-05 06:34:00,
2013-03-05 01:40:00,29.2,18.0,29.80,West,270,2.7,3.8,58,0.00,,,0.00,WSDL version 420,2013-03-05 06:40:00,
2013-03-05 01:46:00,29.1,18.0,29.80,South,180,2.7,6.5,59,0.00,,,0.00,WSDL version 420,2013-03-05 06:46:00,
2013-03-05 01:52:00,29.1,17.8,29.80,SW,236,0.4,6.5,58,0.00,,,0.00,WSDL version 420,2013-03-05 06:52:00,
2013-03-05 01:58:00,28.8,17.5,29.80,ESE,113,2.9,4.3,59,0.00,,,0.00,WSDL version 420,2013-03-05 06:58:00,
2013-03-05 02:04:00,28.9,17.8,29.80,West,270,0.9,4.3,59,0.00,,,0.00,WSDL version 420,2013-03-05 07:04:00,
2013-03-05 02:10:00,28.9,17.8,29.80,North,8,1.3,7.4,59,0.00,,,0.00,WSDL version 420,2013-03-05 07:10:00,
2013-03-05 02:16:00,28.8,17.6,29.80,East,84,2.6,3.6,59,0.00,,,0.00,WSDL version 420,2013-03-05 07:16:00,
2013-03-05 02:22:00,28.8,17.6,29.80,NNE,15,2.4,3.8,59,0.00,,,0.00,WSDL version 420,2013-03-05 07:22:00,
2013-03-05 02:28:00,28.8,17.8,29.80,SW,225,3.4,5.4,60,0.00,,,0.00,WSDL version 420,2013-03-05 07:28:00,
2013-03-05 02:34:00,28.6,17.8,29.80,NW,315,1.3,5.4,60,0.00,,,0.00,WSDL version 420,2013-03-05 07:34:00,
2013-03-05 02:40:00,28.7,17.8,29.80,WNW,293,1.4,5.8,59,0.00,,,0.00,WSDL version 420,2013-03-05 07:40:00,
2013-03-05 02:46:00,28.6,17.6,29.80,SSE,158,2.5,5.8,59,0.00,,,0.00,WSDL version 420,2013-03-05 07:46:00,
2013-03-05 02:52:00,28.6,17.8,29.80,NE,45,3.8,3.8,60,0.00,,,0.00,WSDL version 420,2013-03-05 07:52:00,
2013-03-05 02:58:00,28.5,17.7,29.80,South,174,0.3,3.8,60,0.00,,,0.00,WSDL version 420,2013-03-05 07:58:00,
2013-03-05 03:04:00,28.5,17.9,29.80,WSW,240,1.9,3.4,60,0.00,,,0.00,WSDL version 420,2013-03-05 08:04:00,
2013-03-05 03:10:00,28.4,17.8,29.80,WSW,248,1.4,3.4,61,0.00,,,0.00,WSDL version 420,2013-03-05 08:10:00,
2013-03-05 03:16:00,28.3,17.9,29.80,South,180,0.0,1.6,61,0.00,,,0.00,WSDL version 420,2013-03-05 08:16:00,
2013-03-05 03:22:00,28.2,17.8,29.80,South,191,0.0,1.6,61,0.00,,,0.00,WSDL version 420,2013-03-05 08:22:00,
2013-03-05 03:28:00,28.0,17.6,29.83,North,8,1.3,2.5,61,0.00,,,0.00,WSDL version 420,2013-03-05 08:28:00,
2013-03-05 03:34:00,28.0,17.9,29.83,North,360,0.0,3.1,62,0.00,,,0.00,WSDL version 420,2013-03-05 08:34:00,
2013-03-05 03:41:00,28.0,18.0,29.83,SSW,203,0.0,3.1,62,0.00,,,0.00,WSDL version 420,2013-03-05 08:41:00,
2013-03-05 03:47:00,27.9,17.8,29.83,North,360,0.7,1.3,62,0.00,,,0.00,WSDL version 420,2013-03-05 08:47:00,
2013-03-05 03:53:00,27.9,17.8,29.83,NNW,338,0.0,3.1,62,0.00,,,0.00,WSDL version 420,2013-03-05 08:53:00,
2013-03-05 03:59:00,27.7,17.6,29.83,WNW,293,0.0,3.1,62,0.00,,,0.00,WSDL version 420,2013-03-05 08:59:00,
2013-03-05 04:05:00,27.4,17.6,29.83,WSW,248,0.0,2.0,62,0.00,,,0.00,WSDL version 420,2013-03-05 09:05:00,
2013-03-05 04:11:00,27.2,17.5,29.83,NNW,338,1.1,2.2,63,0.00,,,0.00,WSDL version 420,2013-03-05 09:11:00,
2013-03-05 04:17:00,27.2,17.6,29.83,NNE,23,2.5,2.9,63,0.00,,,0.00,WSDL version 420,2013-03-05 09:17:00,
2013-03-05 04:23:00,27.4,18.0,29.83,NNW,338,0.0,2.7,64,0.00,,,0.00,WSDL version 420,2013-03-05 09:23:00,
2013-03-05 04:29:00,27.3,18.0,29.83,North,360,1.1,1.3,65,0.00,,,0.00,WSDL version 420,2013-03-05 09:29:00,
2013-03-05 04:35:00,27.3,18.0,29.83,WSW,255,0.0,2.2,64,0.00,,,0.00,WSDL version 420,2013-03-05 09:35:00,
2013-03-05 04:41:00,27.0,18.0,29.85,NNE,23,0.0,2.2,65,0.00,,,0.00,WSDL version 420,2013-03-05 09:41:00,
2013-03-05 04:47:00,26.9,17.8,29.85,NNE,23,2.2,3.1,65,0.00,,,0.00,WSDL version 420,2013-03-05 09:47:00,
2013-03-05 04:53:00,27.0,17.9,29.85,South,180,0.4,3.1,65,0.00,,,0.00,WSDL version 420,2013-03-05 09:53:00,
2013-03-05 04:59:00,26.9,17.8,29.85,SSW,203,0.0,1.6,65,0.00,,,0.00,WSDL version 420,2013-03-05 09:59:00,
2013-03-05 05:05:00,27.1,18.2,29.85,NW,323,2.5,2.9,66,0.00,,,0.00,WSDL version 420,2013-03-05 10:05:00,
2013-03-05 05:11:00,27.4,18.6,29.85,WSW,248,3.1,3.6,65,0.00,,,0.00,WSDL version 420,2013-03-05 10:11:00,
2013-03-05 05:17:00,27.3,18.3,29.85,WSW,240,1.2,4.7,65,0.00,,,0.00,WSDL version 420,2013-03-05 10:17:00,
2013-03-05 05:23:00,27.3,18.3,29.85,NW,315,0.0,4.9,65,0.00,,,0.00,WSDL version 420,2013-03-05 10:23:00,
2013-03-05 05:29:00,27.3,18.7,29.85,WSW,248,2.0,4.9,67,0.00,,,0.00,WSDL version 420,2013-03-05 10:29:00,
2013-03-05 05:35:00,27.5,18.9,29.85,SW,214,0.0,2.0,66,0.00,,,0.00,WSDL version 420,2013-03-05 10:35:00,
2013-03-05 05:42:00,27.1,18.4,29.85,West,259,1.2,2.5,66,0.00,,,0.00,WSDL version 420,2013-03-05 10:42:00,
2013-03-05 05:48:00,27.1,18.1,29.85,NNW,330,1.9,2.5,65,0.00,,,0.00,WSDL version 420,2013-03-05 10:48:00,
2013-03-05 05:54:00,27.1,18.5,29.85,NW,315,0.0,2.0,66,0.00,,,0.00,WSDL version 420,2013-03-05 10:54:00,
2013-03-05 06:00:00,26.8,18.4,29.85,ESE,120,1.0,2.9,67,0.00,,,0.00,WSDL version 420,2013-03-05 11:00:00,
2013-03-05 06:06:00,26.8,18.5,29.85,NNE,23,1.3,2.9,68,0.00,,,0.00,WSDL version 420,2013-03-05 11:06:00,
2013-03-05 06:12:00,26.9,18.7,29.85,NW,315,0.0,4.3,68,0.00,,,0.00,WSDL version 420,2013-03-05 11:12:00,
2013-03-05 06:18:00,27.0,18.8,29.85,ENE,75,2.5,4.3,68,0.00,,,0.00,WSDL version 420,2013-03-05 11:18:00,
2013-03-05 06:24:00,27.1,19.1,29.88,SW,218,3.2,4.0,69,0.00,,,0.00,WSDL version 420,2013-03-05 11:24:00,
2013-03-05 06:30:00,27.3,19.3,29.88,NNW,338,2.4,3.4,68,0.00,,,0.00,WSDL version 420,2013-03-05 11:30:00,
2013-03-05 06:36:00,27.2,19.2,29.88,NW,315,2.7,2.9,68,0.00,,,0.00,WSDL version 420,2013-03-05 11:36:00,
2013-03-05 06:42:00,27.4,19.3,29.88,SE,135,1.5,4.0,68,0.00,,,0.00,WSDL version 420,2013-03-05 11:42:00,
2013-03-05 06:48:00,27.9,19.8,29.88,South,174,2.8,4.0,68,0.00,,,0.00,WSDL version 420,2013-03-05 11:48:00,
2013-03-05 06:54:00,27.9,19.8,29.88,North,360,0.7,4.0,68,0.00,,,0.00,WSDL version 420,2013-03-05 11:54:00,
2013-03-05 07:00:00,28.1,19.8,29.88,NNW,330,1.2,3.6,68,0.00,,,0.00,WSDL version 420,2013-03-05 12:00:00,
2013-03-05 07:06:00,28.4,20.2,29.88,WNW,287,2.1,5.4,68,0.00,,,0.00,WSDL version 420,2013-03-05 12:06:00,
2013-03-05 07:12:00,28.6,20.2,29.88,NE,45,2.7,2.9,67,0.00,,,0.00,WSDL version 420,2013-03-05 12:12:00,
2013-03-05 07:18:00,28.7,20.4,29.88,East,90,1.6,2.9,67,0.00,,,0.00,WSDL version 420,2013-03-05 12:18:00,
2013-03-05 07:24:00,28.9,20.4,29.91,SSW,210,1.2,3.1,67,0.00,,,0.00,WSDL version 420,2013-03-05 12:24:00,
2013-03-05 07:30:00,29.2,20.7,29.91,South,189,2.6,3.6,67,0.00,,,0.00,WSDL version 420,2013-03-05 12:30:00,
2013-03-05 07:36:00,30.0,21.5,29.91,West,270,0.9,6.0,67,0.00,,,0.00,WSDL version 420,2013-03-05 12:36:00,
2013-03-05 07:42:00,30.4,21.5,29.91,SE,128,2.8,2.9,66,0.00,,,0.00,WSDL version 420,2013-03-05 12:42:00,
2013-03-05 07:48:00,31.3,22.1,29.91,ENE,60,2.9,7.4,65,0.00,,,0.00,WSDL version 420,2013-03-05 12:48:00,
2013-03-05 07:55:00,31.9,22.5,29.91,NE,45,4.3,7.4,64,0.00,,,0.00,WSDL version 420,2013-03-05 12:55:00,
2013-03-05 08:01:00,32.4,21.2,29.91,NE,45,0.9,5.4,63,0.00,,,0.00,WSDL version 420,2013-03-05 13:01:00,
2013-03-05 08:07:00,32.7,21.2,29.91,ENE,68,3.7,5.4,62,0.00,,,0.00,WSDL version 420,2013-03-05 13:07:00,
2013-03-05 08:13:00,33.0,21.0,29.91,ENE,60,4.8,5.4,61,0.00,,,0.00,WSDL version 420,2013-03-05 13:13:00,
2013-03-05 08:19:00,33.4,21.4,29.91,NNE,15,4.1,5.8,61,0.00,,,0.00,WSDL version 420,2013-03-05 13:19:00,
2013-03-05 08:25:00,33.8,21.5,29.91,NNE,15,4.0,5.6,60,0.00,,,0.00,WSDL version 420,2013-03-05 13:25:00,
2013-03-05 08:31:00,34.0,21.2,29.91,SE,135,3.8,5.6,59,0.00,,,0.00,WSDL version 420,2013-03-05 13:31:00,
2013-03-05 08:37:00,34.6,21.7,29.91,NE,38,3.1,4.0,59,0.00,,,0.00,WSDL version 420,2013-03-05 13:37:00,
2013-03-05 08:43:00,34.8,21.4,29.91,NW,326,2.7,5.4,58,0.00,,,0.00,WSDL version 420,2013-03-05 13:43:00,
2013-03-05 08:49:00,35.1,21.6,29.91,ENE,73,4.8,8.5,57,0.00,,,0.00,WSDL version 420,2013-03-05 13:49:00,
2013-03-05 08:55:00,34.5,20.9,29.91,NE,45,0.0,8.5,57,0.00,,,0.00,WSDL version 420,2013-03-05 13:55:00,
2013-03-05 09:01:00,34.5,20.9,29.91,ENE,68,4.0,4.0,57,0.00,,,0.00,WSDL version 420,2013-03-05 14:01:00,
2013-03-05 09:07:00,35.1,21.4,29.91,NE,45,4.9,4.9,57,0.00,,,0.00,WSDL version 420,2013-03-05 14:07:00,
2013-03-05 09:13:00,35.7,21.8,29.91,NNE,15,3.8,6.5,56,0.00,,,0.00,WSDL version 420,2013-03-05 14:13:00,
2013-03-05 09:19:00,36.2,22.0,29.91,NNE,23,4.4,6.5,56,0.00,,,0.00,WSDL version 420,2013-03-05 14:19:00,
2013-03-05 09:25:00,36.3,22.1,29.91,SSW,203,2.7,6.5,56,0.00,,,0.00,WSDL version 420,2013-03-05 14:25:00,
2013-03-05 09:31:00,36.8,22.4,29.91,ESE,113,5.0,8.5,56,0.00,,,0.00,WSDL version 420,2013-03-05 14:31:00,
2013-03-05 09:37:00,37.0,22.2,29.91,NNW,338,4.0,8.5,55,0.00,,,0.00,WSDL version 420,2013-03-05 14:37:00,
2013-03-05 09:43:00,37.5,22.7,29.91,ENE,75,3.4,4.3,55,0.00,,,0.00,WSDL version 420,2013-03-05 14:43:00,
2013-03-05 09:49:00,38.1,23.1,29.91,NE,45,5.6,5.6,54,0.00,,,0.00,WSDL version 420,2013-03-05 14:49:00,
2013-03-05 09:55:00,37.9,22.6,29.91,NW,304,2.0,5.6,53,0.00,,,0.00,WSDL version 420,2013-03-05 14:55:00,
2013-03-05 10:01:00,37.9,21.9,29.91,NE,45,5.8,6.5,52,0.00,,,0.00,WSDL version 420,2013-03-05 15:01:00,
2013-03-05 10:07:00,38.5,22.5,29.91,NNW,345,3.2,6.5,52,0.00,,,0.00,WSDL version 420,2013-03-05 15:07:00,
2013-03-05 10:13:00,38.1,22.1,29.91,NE,56,3.5,6.5,52,0.00,,,0.00,WSDL version 420,2013-03-05 15:13:00,
2013-03-05 10:20:00,38.7,22.8,29.91,East,90,3.8,10.7,52,0.00,,,0.00,WSDL version 420,2013-03-05 15:20:00,
2013-03-05 10:26:00,38.9,22.8,29.91,NNE,23,5.6,10.7,52,0.00,,,0.00,WSDL version 420,2013-03-05 15:26:00,
2013-03-05 10:32:00,39.0,23.0,29.91,ENE,68,9.8,9.8,52,0.00,,,0.00,WSDL version 420,2013-03-05 15:32:00,
2013-03-05 10:38:00,39.4,22.9,29.91,SSW,203,5.8,9.8,51,-99.99,,,-99.99,WSDL version 420,2013-03-05 15:38:00,
2013-03-05 10:44:00,39.3,22.7,29.91,ESE,113,2.5,14.3,51,0.00,,,0.00,WSDL version 420,2013-03-05 15:44:00,
2013-03-05 10:50:00,40.8,24.1,29.91,NE,56,6.8,10.1,51,0.00,,,0.00,WSDL version 420,2013-03-05 15:50:00,
2013-03-05 10:56:00,41.2,24.0,29.91,South,180,5.4,10.1,50,0.00,,,0.00,WSDL version 420,2013-03-05 15:56:00,
2013-03-05 11:02:00,41.6,24.3,29.91,NE,45,4.9,5.4,50,0.00,,,0.00,WSDL version 420,2013-03-05 16:02:00,
2013-03-05 11:08:00,41.5,24.3,29.91,South,173,2.3,4.9,50,0.00,,,0.00,WSDL version 420,2013-03-05 16:08:00,
2013-03-05 11:14:00,41.5,23.8,29.91,ENE,68,4.7,6.3,49,0.00,,,0.00,WSDL version 420,2013-03-05 16:14:00,
2013-03-05 11:20:00,42.4,24.7,29.91,NE,45,3.1,6.3,49,-99.99,,,-99.99,WSDL version 420,2013-03-05 16:20:00,
2013-03-05 11:26:00,42.9,25.0,29.91,East,101,3.1,3.8,49,-99.99,,,-99.99,WSDL version 420,2013-03-05 16:26:00,
2013-03-05 11:32:00,43.5,25.3,29.91,WSW,240,2.8,4.7,48,-99.99,,,-99.99,WSDL version 420,2013-03-05 16:32:00,
2013-03-05 11:38:00,43.3,25.2,29.91,NE,45,5.6,5.6,48,0.00,,,0.00,WSDL version 420,2013-03-05 16:38:00,
2013-03-05 11:44:00,43.4,25.2,29.91,NW,315,3.8,5.6,48,0.00,,,0.00,WSDL version 420,2013-03-05 16:44:00,
2013-03-05 11:50:00,43.6,25.0,29.91,ENE,68,2.1,3.8,48,0.00,,,0.00,WSDL version 420,2013-03-05 16:50:00,
2013-03-05 11:56:00,44.2,25.6,29.91,ENE,68,2.9,3.6,47,0.00,,,0.00,WSDL version 420,2013-03-05 16:56:00,
2013-03-05 12:02:00,44.5,25.7,29.91,SE,124,5.3,6.5,47,0.00,,,0.00,WSDL version 420,2013-03-05 17:02:00,
2013-03-05 12:08:00,44.4,25.9,29.91,NW,315,2.2,6.5,48,0.00,,,0.00,WSDL version 420,2013-03-05 17:08:00,
2013-03-05 12:14:00,44.3,25.5,29.91,NE,34,4.8,6.3,47,0.00,,,0.00,WSDL version 420,2013-03-05 17:14:00,
2013-03-05 12:20:00,44.8,25.5,29.91,NNW,345,4.1,6.3,46,0.00,,,0.00,WSDL version 420,2013-03-05 17:20:00,
2013-03-05 12:26:00,45.3,25.7,29.88,South,180,4.0,6.0,46,0.00,,,0.00,WSDL version 420,2013-03-05 17:26:00,
2013-03-05 12:32:00,45.7,26.1,29.88,East,90,2.5,4.0,46,0.00,,,0.00,WSDL version 420,2013-03-05 17:32:00,
2013-03-05 12:38:00,45.0,25.1,29.88,SE,143,3.3,4.3,45,0.00,,,0.00,WSDL version 420,2013-03-05 17:38:00,
2013-03-05 12:44:00,45.4,25.5,29.88,NNE,23,5.6,5.6,45,0.00,,,0.00,WSDL version 420,2013-03-05 17:44:00,
2013-03-05 12:50:00,45.4,25.7,29.88,NNE,23,5.8,5.8,46,0.00,,,0.00,WSDL version 420,2013-03-05 17:50:00,
2013-03-05 12:56:00,45.6,25.5,29.88,North,360,2.9,5.8,45,0.00,,,0.00,WSDL version 420,2013-03-05 17:56:00,
2013-03-05 13:03:00,45.4,25.5,29.88,ESE,120,4.1,5.4,46,0.00,,,0.00,WSDL version 420,2013-03-05 18:03:00,
2013-03-05 13:09:00,45.7,25.3,29.88,SW,214,2.9,5.4,44,0.00,,,0.00,WSDL version 420,2013-03-05 18:09:00,
2013-03-05 13:15:00,45.8,25.7,29.88,NW,323,4.4,5.6,45,0.00,,,0.00,WSDL version 420,2013-03-05 18:15:00,
2013-03-05 13:21:00,45.7,25.4,29.88,ESE,120,2.9,5.6,44,0.00,,,0.00,WSDL version 420,2013-03-05 18:21:00,
2013-03-05 13:27:00,46.2,25.5,29.88,East,90,4.0,4.0,44,0.00,,,0.00,WSDL version 420,2013-03-05 18:27:00,
2013-03-05 13:33:00,46.5,26.3,29.88,NNW,338,2.9,5.6,45,0.00,,,0.00,WSDL version 420,2013-03-05 18:33:00,
2013-03-05 13:39:00,46.2,25.7,29.88,NE,38,5.0,6.3,44,0.00,,,0.00,WSDL version 420,2013-03-05 18:39:00,
2013-03-05 13:45:00,46.1,25.6,29.88,SE,143,2.6,6.3,44,0.00,,,0.00,WSDL version 420,2013-03-05 18:45:00,
2013-03-05 13:51:00,46.1,25.4,29.88,ENE,68,3.7,4.7,44,0.00,,,0.00,WSDL version 420,2013-03-05 18:51:00,
2013-03-05 13:57:00,46.0,24.8,29.88,NE,38,3.2,4.7,43,0.00,,,0.00,WSDL version 420,2013-03-05 18:57:00,
2013-03-05 14:03:00,45.8,25.0,29.88,NE,45,3.3,4.3,43,0.00,,,0.00,WSDL version 420,2013-03-05 19:03:00,
2013-03-05 14:09:00,45.4,24.2,29.88,East,90,3.8,4.0,43,0.00,,,0.00,WSDL version 420,2013-03-05 19:09:00,
2013-03-05 14:15:00,46.2,25.3,29.88,North,360,2.5,3.8,43,0.00,,,0.00,WSDL version 420,2013-03-05 19:15:00,
2013-03-05 14:21:00,45.7,24.7,29.88,WSW,248,2.9,5.6,44,0.00,,,0.00,WSDL version 420,2013-03-05 19:21:00,
2013-03-05 14:27:00,45.6,24.8,29.88,WNW,293,0.9,2.9,44,0.00,,,0.00,WSDL version 420,2013-03-05 19:27:00,
2013-03-05 14:33:00,45.6,24.6,29.88,WSW,248,1.0,2.7,43,0.00,,,0.00,WSDL version 420,2013-03-05 19:33:00,
2013-03-05 14:39:00,46.0,25.0,29.88,SE,143,1.3,3.8,43,0.00,,,0.00,WSDL version 420,2013-03-05 19:39:00,
2013-03-05 14:45:00,45.8,25.0,29.88,WNW,293,2.7,3.8,44,0.00,,,0.00,WSDL version 420,2013-03-05 19:45:00,
2013-03-05 14:51:00,45.8,24.7,29.88,NNE,30,3.7,5.8,43,0.00,,,0.00,WSDL version 420,2013-03-05 19:51:00,
2013-03-05 14:57:00,45.6,24.6,29.88,NNE,23,3.7,5.8,44,0.00,,,0.00,WSDL version 420,2013-03-05 19:57:00,
2013-03-05 15:03:00,45.4,24.5,29.88,ENE,68,2.8,4.5,43,0.00,,,0.00,WSDL version 420,2013-03-05 20:03:00,
2013-03-05 15:09:00,45.4,24.6,29.88,East,90,5.4,5.4,44,0.00,,,0.00,WSDL version 420,2013-03-05 20:09:00,
2013-03-05 15:15:00,45.0,23.8,29.88,SE,143,2.2,5.4,43,0.00,,,0.00,WSDL version 420,2013-03-05 20:15:00,
2013-03-05 15:21:00,45.2,24.6,29.88,WNW,293,0.0,3.4,44,0.00,,,0.00,WSDL version 420,2013-03-05 20:21:00,
2013-03-05 15:27:00,44.7,24.3,29.88,NW,315,1.9,2.9,44,0.00,,,0.00,WSDL version 420,2013-03-05 20:27:00,
2013-03-05 15:33:00,44.6,24.0,29.88,NE,45,2.8,4.0,44,0.00,,,0.00,WSDL version 420,2013-03-05 20:33:00,
2013-03-05 15:40:00,44.2,23.9,29.91,NNW,345,2.0,4.0,44,0.00,,,0.00,WSDL version 420,2013-03-05 20:40:00,
2013-03-05 15:46:00,43.9,23.4,29.91,North,360,2.0,3.4,44,0.00,,,0.00,WSDL version 420,2013-03-05 20:46:00,
2013-03-05 15:52:00,43.6,23.3,29.91,North,360,2.5,2.9,45,0.00,,,0.00,WSDL version 420,2013-03-05 20:52:00,
2013-03-05 15:58:00,43.5,23.0,29.88,WSW,248,0.0,2.7,44,0.00,,,0.00,WSDL version 420,2013-03-05 20:58:00,
2013-03-05 16:04:00,42.9,22.8,29.88,North,360,2.2,3.4,45,0.00,,,0.00,WSDL version 420,2013-03-05 21:04:00,
2013-03-05 16:10:00,42.7,22.8,29.88,WSW,248,0.0,3.4,45,0.00,,,0.00,WSDL version 420,2013-03-05 21:10:00,
2013-03-05 16:16:00,42.4,23.1,29.88,West,270,0.0,0.0,46,0.00,,,0.00,WSDL version 420,2013-03-05 21:16:00,
2013-03-05 16:22:00,42.2,22.9,29.88,NE,45,2.7,2.7,46,0.00,,,0.00,WSDL version 420,2013-03-05 21:22:00,
2013-03-05 16:28:00,42.1,22.9,29.91,NE,45,4.3,4.3,46,0.00,,,0.00,WSDL version 420,2013-03-05 21:28:00,
2013-03-05 16:34:00,42.0,22.7,29.91,NNE,23,4.5,4.5,46,0.00,,,0.00,WSDL version 420,2013-03-05 21:34:00,
2013-03-05 16:40:00,41.7,22.6,29.91,NW,315,2.0,4.5,46,0.00,,,0.00,WSDL version 420,2013-03-05 21:40:00,
2013-03-05 16:46:00,41.4,22.7,29.91,ENE,68,2.6,4.0,47,0.00,,,0.00,WSDL version 420,2013-03-05 21:46:00,
2013-03-05 16:52:00,41.1,22.4,29.91,North,360,2.9,3.8,47,0.00,,,0.00,WSDL version 420,2013-03-05 21:52:00,
2013-03-05 16:58:00,40.8,22.5,29.91,North,360,2.9,2.9,48,0.00,,,0.00,WSDL version 420,2013-03-05 21:58:00,
2013-03-05 17:04:00,40.5,22.3,29.91,North,360,2.9,2.9,48,0.00,,,0.00,WSDL version 420,2013-03-05 22:04:00,
2013-03-05 17:10:00,40.4,22.3,29.88,North,-999,-999.0,-999.0,48,0.00,,,0.00,WSDL version 420,2013-03-05 22:10:00,
2013-03-05 17:16:00,39.6,21.5,29.88,North,360,0.0,0.0,48,0.00,,,0.00,WSDL version 420,2013-03-05 22:16:00,
2013-03-05 17:22:00,39.6,21.5,29.88,WNW,300,2.5,2.7,48,0.00,,,0.00,WSDL version 420,2013-03-05 22:22:00,
2013-03-05 17:28:00,39.4,21.8,29.91,NNW,338,0.0,2.7,49,-99.99,,,-99.99,WSDL version 420,2013-03-05 22:28:00,
2013-03-05 17:34:00,38.4,20.9,29.91,North,360,0.0,2.7,49,0.00,,,0.00,WSDL version 420,2013-03-05 22:34:00,
2013-03-05 17:40:00,37.9,20.5,29.91,NW,315,0.0,0.0,49,0.00,,,0.00,WSDL version 420,2013-03-05 22:40:00,
2013-03-05 17:46:00,37.5,20.3,29.91,NNW,338,0.0,0.0,50,0.00,,,0.00,WSDL version 420,2013-03-05 22:46:00,
2013-03-05 17:52:00,37.2,20.3,29.91,NNW,338,0.0,0.0,50,0.00,,,0.00,WSDL version 420,2013-03-05 22:52:00,
2013-03-05 17:58:00,37.0,20.0,29.91,North,-999,-999.0,-999.0,50,0.00,,,0.00,WSDL version 420,2013-03-05 22:58:00,
2013-03-05 18:04:00,36.6,19.7,29.91,NE,45,2.0,2.0,50,0.00,,,0.00,WSDL version 420,2013-03-05 23:04:00,
2013-03-05 18:10:00,36.4,20.0,29.91,NE,45,2.0,2.0,51,0.00,,,0.00,WSDL version 420,2013-03-05 23:10:00,
2013-03-05 18:17:00,36.4,20.0,29.91,NE,45,2.0,2.0,51,0.00,,,0.00,WSDL version 420,2013-03-05 23:17:00,
2013-03-05 18:23:00,36.6,20.2,29.91,North,-999,-999.0,-999.0,51,0.00,,,0.00,WSDL version 420,2013-03-05 23:23:00,
2013-03-05 18:29:00,36.9,20.9,29.94,North,-999,-999.0,-999.0,52,0.00,,,0.00,WSDL version 420,2013-03-05 23:29:00,
2013-03-05 18:35:00,37.0,21.0,29.94,North,-999,-999.0,-999.0,52,0.00,,,0.00,WSDL version 420,2013-03-05 23:35:00,
2013-03-05 18:41:00,37.2,21.4,29.94,SW,225,3.4,3.4,53,0.00,,,0.00,WSDL version 420,2013-03-05 23:41:00,
2013-03-05 18:47:00,37.5,21.7,29.94,SW,225,0.0,3.4,53,0.00,,,0.00,WSDL version 420,2013-03-05 23:47:00,
2013-03-05 18:53:00,37.8,21.7,29.94,SE,135,0.0,0.0,52,0.00,,,0.00,WSDL version 420,2013-03-05 23:53:00,
2013-03-05 18:59:00,37.9,21.9,29.94,SE,135,0.0,0.0,52,0.00,,,0.00,WSDL version 420,2013-03-05 23:59:00,
2013-03-05 19:05:00,37.6,21.6,29.94,West,270,0.0,0.0,52,0.00,,,0.00,WSDL version 420,2013-03-06 00:05:00,
2013-03-05 19:11:00,37.6,21.6,29.94,West,270,0.0,0.0,52,0.00,,,0.00,WSDL version 420,2013-03-06 00:11:00,
2013-03-05 19:17:00,37.7,22.1,29.94,West,270,0.0,0.0,53,0.00,,,0.00,WSDL version 420,2013-03-06 00:17:00,
2013-03-05 19:23:00,37.5,21.9,29.94,West,270,0.0,0.0,53,0.00,,,0.00,WSDL version 420,2013-03-06 00:23:00,
2013-03-05 19:29:00,37.6,22.0,29.94,North,0,0.0,0.0,53,0.00,,,0.00,WSDL version 420,2013-03-06 00:29:00,
2013-03-05 19:35:00,37.4,21.8,29.94,WNW,293,0.0,0.0,53,0.00,,,0.00,WSDL version 420,2013-03-06 00:35:00,
2013-03-05 19:41:00,37.4,21.8,29.94,WNW,293,0.0,0.0,53,0.00,,,0.00,WSDL version 420,2013-03-06 00:41:00,
2013-03-05 19:47:00,37.2,22.0,29.94,NNW,338,0.0,0.0,54,0.00,,,0.00,WSDL version 420,2013-03-06 00:47:00,
2013-03-05 19:53:00,37.2,22.1,29.97,NW,315,0.0,0.0,54,0.00,,,0.00,WSDL version 420,2013-03-06 00:53:00,
2013-03-05 19:59:00,37.3,22.2,29.97,NNE,23,2.6,2.7,54,0.00,,,0.00,WSDL version 420,2013-03-06 00:59:00,
2013-03-05 20:05:00,37.5,22.4,29.97,NNW,338,0.0,2.7,54,0.00,,,0.00,WSDL version 420,2013-03-06 01:05:00,
2013-03-05 20:11:00,37.3,22.0,29.97,NNW,338,0.0,0.0,54,0.00,,,0.00,WSDL version 420,2013-03-06 01:11:00,
2013-03-05 20:17:00,37.0,21.9,29.97,North,360,0.0,0.0,54,0.00,,,0.00,WSDL version 420,2013-03-06 01:17:00,
2013-03-05 20:23:00,37.0,21.9,29.97,North,360,0.0,0.0,54,0.00,,,0.00,WSDL version 420,2013-03-06 01:23:00,
2013-03-05 20:29:00,37.0,21.9,29.97,NNE,23,0.0,2.0,54,-99.99,,,-99.99,WSDL version 420,2013-03-06 01:29:00,
2013-03-05 20:35:00,37.0,21.9,29.97,NNE,23,0.0,2.0,54,0.00,,,0.00,WSDL version 420,2013-03-06 01:35:00,
2013-03-05 20:42:00,36.9,22.2,29.94,North,11,0.0,0.0,55,0.00,,,0.00,WSDL version 420,2013-03-06 01:42:00,
2013-03-05 20:48:00,36.7,22.1,29.94,North,360,0.0,0.0,55,0.00,,,0.00,WSDL version 420,2013-03-06 01:48:00,
2013-03-05 20:54:00,36.6,22.0,29.94,NNE,23,0.0,0.0,55,0.00,,,0.00,WSDL version 420,2013-03-06 01:54:00,
2013-03-05 21:00:00,36.5,21.9,29.94,NNE,23,0.0,0.0,55,0.00,,,0.00,WSDL version 420,2013-03-06 02:00:00,
2013-03-05 21:06:00,36.7,22.5,29.94,NNE,23,0.0,0.0,56,0.00,,,0.00,WSDL version 420,2013-03-06 02:06:00,
2013-03-05 21:12:00,36.7,22.8,29.94,NNE,23,0.0,0.0,56,0.00,,,0.00,WSDL version 420,2013-03-06 02:12:00,
2013-03-05 21:18:00,36.6,22.6,29.94,East,79,0.0,0.0,57,0.00,,,0.00,WSDL version 420,2013-03-06 02:18:00,
2013-03-05 21:24:00,36.5,22.7,29.94,SE,135,0.0,0.0,57,0.00,,,0.00,WSDL version 420,2013-03-06 02:24:00,
2013-03-05 21:30:00,36.4,22.5,29.94,North,360,1.1,1.1,56,0.00,,,0.00,WSDL version 420,2013-03-06 02:30:00,
2013-03-05 21:36:00,36.5,22.3,29.94,North,360,1.1,1.1,56,0.00,,,0.00,WSDL version 420,2013-03-06 02:36:00,
2013-03-05 21:42:00,36.6,22.4,29.94,North,8,0.0,1.1,56,0.00,,,0.00,WSDL version 420,2013-03-06 02:42:00,
2013-03-05 21:48:00,36.7,22.5,29.94,NE,45,2.9,2.9,56,0.00,,,0.00,WSDL version 420,2013-03-06 02:48:00,
2013-03-05 21:54:00,36.6,22.5,29.94,NNE,23,0.0,2.9,56,0.00,,,0.00,WSDL version 420,2013-03-06 02:54:00,
2013-03-05 22:00:00,36.5,22.3,29.94,NNW,338,0.0,0.0,56,0.00,,,0.00,WSDL version 420,2013-03-06 03:00:00,
2013-03-05 22:06:00,36.4,22.5,29.94,NNW,338,0.0,0.0,57,0.00,,,0.00,WSDL version 420,2013-03-06 03:06:00,
2013-03-05 22:12:00,36.5,22.7,29.94,NNE,23,0.0,0.0,57,0.00,,,0.00,WSDL version 420,2013-03-06 03:12:00,
2013-03-05 22:18:00,36.3,22.6,29.94,North,360,2.0,2.0,57,0.00,,,0.00,WSDL version 420,2013-03-06 03:18:00,
2013-03-05 22:24:00,36.3,22.1,29.94,North,360,0.0,2.0,56,0.00,,,0.00,WSDL version 420,2013-03-06 03:24:00,
2013-03-05 22:30:00,36.3,22.6,29.94,NE,45,0.0,0.0,57,0.00,,,0.00,WSDL version 420,2013-03-06 03:30:00,
2013-03-05 22:36:00,36.3,23.0,29.94,NE,45,2.2,3.4,58,0.00,,,0.00,WSDL version 420,2013-03-06 03:36:00,
2013-03-05 22:43:00,36.3,23.4,29.94,North,360,1.6,3.4,59,0.00,,,0.00,WSDL version 420,2013-03-06 03:43:00,
2013-03-05 22:49:00,36.3,23.4,29.94,NE,45,2.8,3.4,59,0.00,,,0.00,WSDL version 420,2013-03-06 03:49:00,
2013-03-05 22:55:00,36.3,23.3,29.94,NNE,23,1.3,3.4,59,0.00,,,0.00,WSDL version 420,2013-03-06 03:55:00,
2013-03-05 23:01:00,36.3,23.4,29.94,NNE,23,1.6,2.0,59,0.00,,,0.00,WSDL version 420,2013-03-06 04:01:00,
2013-03-05 23:07:00,36.3,23.1,29.94,NE,45,2.0,2.9,59,0.00,,,0.00,WSDL version 420,2013-03-06 04:07:00,
2013-03-05 23:13:00,36.3,23.4,29.94,NNE,30,0.0,2.9,59,0.00,,,0.00,WSDL version 420,2013-03-06 04:13:00,
2013-03-05 23:19:00,36.3,23.1,29.94,NNE,23,0.0,2.0,58,0.00,,,0.00,WSDL version 420,2013-03-06 04:19:00,
2013-03-05 23:25:00,36.3,23.0,29.94,NE,34,1.5,2.9,58,0.00,,,0.00,WSDL version 420,2013-03-06 04:25:00,
2013-03-05 23:31:00,36.2,23.0,29.94,North,360,0.0,2.9,59,0.00,,,0.00,WSDL version 420,2013-03-06 04:31:00,
2013-03-05 23:37:00,36.1,23.2,29.94,North,360,1.1,1.3,59,0.00,,,0.00,WSDL version 420,2013-03-06 04:37:00,
2013-03-05 23:43:00,36.1,23.6,29.91,NNE,15,2.7,3.4,60,0.00,,,0.00,WSDL version 420,2013-03-06 04:43:00,
2013-03-05 23:49:00,36.0,23.7,29.91,NE,45,1.0,3.4,61,0.00,,,0.00,WSDL version 420,2013-03-06 04:49:00,
2013-03-05 23:55:00,35.8,23.7,29.91,NNE,23,2.0,2.9,61,0.00,,,0.00,WSDL version 420,2013-03-06 04:55:00,